Terug naar catalogus

STARLINK-35525

ActiefCommunicatieVLEO
NORAD 66134·PAYLOAD·🇺🇸 United States

Gelanceerd Oct 22, 2025 vanaf Vandenberg Space Force Base

Loading…

Volgende Passages (komende 24 uur)

TLE

VersSource: CelesTrak SupGP

Epoch: Sep 14, 2026, 22:50 UTC

1 66134C 25237W   26257.95187500  .00023557  00000+0  69577-3 0  2571
2 66134  53.1574 237.5363 0001416 101.8595 108.3047 15.34389202    18

Volg STARLINK-35525 in realtime met AllMySat

Download on the App Store